Flag for Indonesia Weather past 2 weeks in Palu, Central Sulawesi, Indonesia

77 °F

Thunderstorms. Partly sunny.

Feels Like: 78 °F
Forecast: 78 / 87 °F
Wind: 15 mph from Southwest

Location: Ujung Pandang / Hasanuddin

Current Time: Nov 29, 2015 at 3:40:36 PM

Latest Report: Nov 29, 2015 at 3:00 PM

Visibility: 2 mi

Pressure: N/A

Humidity: 100%

Dew point: 77 °F

Location of PaluLocation

Historic Weather in Palu — Graph


Palu temperature yesterday

Maximum temperature yesterday: 90 °F (at 9:30 AM)
Minimum temperature yesterday: 75 °F (at 5:30 AM)
Average temperature yesterday: 83 °F

Past Weeks' High & Low Weather Summary

High95 °F (Nov 23, 1:00 PM)100% (Nov 14, 7:30 PM)29.92 "Hg (Nov 14, 7:30 PM)
Low45 °F (Nov 27, 2:30 PM)47% (Nov 21, 10:30 AM)29.68 "Hg (Nov 20, 3:00 PM)
Average83 °F87%29.79 "Hg
* Reported Nov 14 2:00 PM — Nov 29 2:30 PM, Palu, Weather by CustomWeather, © 2015

Note: Actual official high and low records may vary slightly from our data, if they occured in-between our weather recording intervals... More about our weather records


Palu weather history for previous 24 hours

Time TempWeatherWind HumidityBarometerVisibility
2:30 PM
Sun, Nov 29
81 °FPartly sunny.20 mph94%29.80 "Hg4 mi
2:00 PM91 °FScattered clouds.10 mph75%29.80 "Hg5 mi
1:00 PM90 °FScattered clouds.12 mph79%29.83 "Hg6 mi
12:30 PM90 °FScattered clouds.8 mph71%29.83 "Hg6 mi
12:00 PM90 °FScattered clouds.9 mph75%29.86 "Hg6 mi
11:30 AM88 °FScattered clouds.9 mph84%29.86 "Hg6 mi
11:00 AM90 °FPartly sunny.3 mph71%29.89 "Hg6 mi
10:30 AM88 °FScattered clouds.3 mph84%29.89 "HgN/A
10:00 AM88 °FScattered clouds.2 mph75%29.89 "HgN/A
9:30 AM88 °FScattered clouds.3 mph84%29.92 "HgN/A
9:00 AM86 °FScattered clouds.5 mph84%29.92 "HgN/A
8:00 AM86 °FPassing clouds.2 mph89%29.92 "HgN/A
7:30 AM82 °FPassing clouds.3 mph100%29.89 "HgN/A
7:00 AM82 °FPassing clouds.2 mph100%29.89 "Hg6 mi
6:00 AM77 °FPassing clouds.2 mph100%29.86 "Hg5 mi
5:30 AM77 °FPassing clouds.3 mph100%29.86 "Hg5 mi
4:30 AM79 °FPassing clouds.3 mph100%29.86 "Hg4 mi
4:00 AM79 °FPassing clouds.3 mph100%29.86 "Hg4 mi
3:00 AM79 °FPassing clouds.3 mph100%29.86 "Hg4 mi
2:30 AM79 °FPassing clouds.5 mph100%29.86 "Hg4 mi
2:00 AM79 °FPassing clouds.3 mph100%29.86 "Hg4 mi
1:30 AM79 °FPassing clouds.1 mph100%29.86 "Hg4 mi
1:00 AM81 °FPassing clouds.3 mph100%29.86 "Hg4 mi
12:30 AM81 °FPassing clouds.6 mph100%29.86 "Hg4 mi
12:00 AM81 °FThundershowers. Passing clouds.2 mph100%29.89 "Hg4 mi
11:30 PM
Sat, Nov 28
81 °FThundershowers. Passing clouds.3 mph100%29.89 "Hg4 mi
11:00 PM82 °FThundershowers. Passing clouds.5 mph100%N/A4 mi
10:30 PM82 °FThundershowers. Passing clouds.8 mph100%29.89 "Hg5 mi
10:00 PM82 °FThundershowers. Passing clouds.9 mph100%N/A5 mi
9:30 PM81 °FThundershowers. Passing clouds.3 mph100%29.89 "Hg5 mi
9:00 PM81 °FThundershowers. Passing clouds.5 mph100%29.86 "Hg5 mi
8:30 PM81 °FThundershowers. Passing clouds.5 mph100%29.86 "Hg5 mi
8:00 PM81 °FThundershowers. Passing clouds.5 mph100%29.83 "Hg5 mi
7:30 PM82 °FPassing clouds.3 mph100%29.83 "Hg5 mi
7:00 PM82 °FPassing clouds.3 mph100%29.80 "Hg5 mi
6:30 PM82 °FPassing clouds.3 mph100%29.80 "Hg5 mi
6:00 PM84 °FPassing clouds.5 mph94%29.80 "Hg6 mi
5:30 PM84 °FPassing clouds.5 mph89%29.80 "Hg6 mi
5:00 PM84 °FPassing clouds.5 mph94%29.77 "Hg6 mi
4:30 PM84 °FThunderstorms. Scattered clouds.6 mph89%N/A5 mi
4:00 PM86 °FThunderstorms. Scattered clouds.3 mph84%N/A5 mi
Weather by CustomWeather, © 2015

See weather overviewHow to use our weather pages